Location: Street
(51.1247°N, 2.7429°W)
Time: 14:47:42
(UTC+00:00)

Transit 2A Rocket - Visible Passes

Search period start: 26 November 2020 00:00
Search period end: 06 December 2020 00:00
Orbit: 588 x 914 km, 66.7° (Epoch: 25 November)

Date Brightness Start Highest point End Pass type
(mag) Time Alt. Az. Time Alt. Az. Time Alt. Az.
26 Nov 6.8 04:03:39 26° NNE 04:03:39 26° NNE 04:06:00 10° NNE visible
26 Nov 6.5 05:43:34 21° NW 05:44:12 22° NNW 05:48:19 10° NNE visible
27 Nov 7.6 03:22:26 16° NE 03:22:26 16° NE 03:23:26 10° NE visible
27 Nov 6.5 05:02:21 25° N 05:02:21 25° N 05:05:45 10° NNE visible
27 Nov 6.9 06:42:25 10° NW 06:45:35 15° N 06:48:36 10° NNE visible
28 Nov 6.9 04:21:06 22° NNE 04:21:06 22° NNE 04:23:14 10° NNE visible
28 Nov 6.8 06:01:00 15° NNW 06:02:24 17° NNW 06:05:44 10° NNE visible
29 Nov 7.5 03:39:47 15° NNE 03:39:47 15° NNE 03:40:43 10° NNE visible
29 Nov 6.7 05:19:42 19° NNW 05:19:42 19° NNW 05:23:03 10° NNE visible
29 Nov 6.9 07:00:56 10° NNW 07:03:56 15° N 07:06:49 10° NE visible
30 Nov 7.0 04:38:22 18° N 04:38:22 18° N 04:40:28 10° NNE visible
30 Nov 7.0 06:18:17 11° NNW 06:20:44 15° N 06:23:36 10° NNE visible
01 Dec 7.5 03:57:01 14° NNE 03:57:01 14° NNE 03:57:56 10° NNE visible
01 Dec 6.9 05:36:55 15° NNW 05:37:34 15° N 05:40:36 10° NNE visible
02 Dec 7.0 04:55:33 16° N 04:55:33 16° N 04:57:49 10° NNE visible
02 Dec 6.9 06:35:59 10° NNW 06:39:05 15° N 06:42:03 10° NE visible
03 Dec 7.4 04:14:10 14° NNE 04:14:10 14° NNE 04:15:11 10° NNE visible
03 Dec 7.0 05:54:04 12° NNW 05:55:54 15° N 05:58:41 10° NE visible
04 Dec 7.0 05:12:41 15° N 05:12:43 15° N 05:15:32 10° NNE visible
04 Dec 6.7 06:53:37 10° NNW 06:57:19 19° NNE 07:00:48 10° ENE visible
05 Dec 7.3 04:31:17 14° N 04:31:17 14° N 04:32:38 10° NNE visible
05 Dec 6.9 06:11:11 11° NNW 06:14:12 16° NNE 06:17:19 10° NE visible
